Wetterdaten: Freitag, 08.01.2016
Datum Zeit Auen-Temp. Temp gefhlt Luftfeuchte Luftdruck Regen Wind Richtung Richtung Taupunkt Windben
08.01.2016 00:00 2,3 C 1,6 C 83 % 1005,0 hPa 0,0 mm 13,7 km/h (3 Bft) W-NW 292 -0,3 C 15,0 km/h (3 Bft)
08.01.2016 00:05 2,3 C 1,6 C 83 % 1005,0 hPa 0,0 mm 14,0 km/h (3 Bft) W-NW 292 -0,3 C 14,5 km/h (3 Bft)
08.01.2016 00:10 2,3 C 1,6 C 84 % 1005,0 hPa 0,0 mm 14,2 km/h (3 Bft) W-SW 247 -0,1 C 22,0 km/h (4 Bft)
08.01.2016 00:15 2,3 C 1,6 C 84 % 1004,5 hPa 0,0 mm 14,2 km/h (3 Bft) W 270 -0,1 C 15,0 km/h (3 Bft)
08.01.2016 00:20 2,3 C 1,6 C 83 % 1004,5 hPa 0,0 mm 14,0 km/h (3 Bft) W-SW 247 -0,3 C 34,7 km/h (5 Bft)
08.01.2016 00:25 2,4 C 1,6 C 83 % 1004,5 hPa 0,0 mm 14,2 km/h (3 Bft) W 270 -0,2 C 14,0 km/h (3 Bft)
08.01.2016 00:30 2,4 C 1,3 C 83 % 1004,5 hPa 0,0 mm 14,8 km/h (3 Bft) W-SW 247 -0,2 C 20,5 km/h (4 Bft)
08.01.2016 00:35 2,4 C 1,6 C 83 % 1004,7 hPa 0,0 mm 14,8 km/h (3 Bft) W-NW 292 -0,2 C 15,0 km/h (3 Bft)
08.01.2016 00:40 2,4 C 1,6 C 83 % 1004,7 hPa 0,0 mm 12,9 km/h (3 Bft) NW 315 -0,2 C 10,1 km/h (2 Bft)
08.01.2016 00:45 2,3 C 1,4 C 83 % 1004,7 hPa 0,0 mm 11,9 km/h (2 Bft) W-NW 292 -0,3 C 17,6 km/h (3 Bft)
08.01.2016 00:50 2,4 C 1,6 C 84 % 1004,7 hPa 0,0 mm 10,6 km/h (2 Bft) NW 315 -0,0 C 13,7 km/h (3 Bft)
08.01.2016 00:55 2,5 C 1,7 C 84 % 1004,9 hPa 0,0 mm 10,9 km/h (2 Bft) W-NW 292 0,1 C 7,3 km/h (2 Bft)
08.01.2016 01:00 2,6 C 1,8 C 84 % 1004,9 hPa 0,0 mm 11,1 km/h (2 Bft) W 270 0,2 C 16,1 km/h (3 Bft)
08.01.2016 01:05 2,7 C 1,9 C 84 % 1004,9 hPa 0,0 mm 11,9 km/h (2 Bft) W-NW 292 0,3 C 25,1 km/h (4 Bft)
08.01.2016 01:10 2,8 C 2,2 C 84 % 1004,9 hPa 0,0 mm 14,2 km/h (3 Bft) W-SW 247 0,4 C 22,0 km/h (4 Bft)
08.01.2016 01:15 2,8 C 2,1 C 84 % 1004,8 hPa 0,0 mm 14,8 km/h (3 Bft) W 270 0,4 C 20,2 km/h (4 Bft)
08.01.2016 01:20 2,8 C 2,0 C 84 % 1004,8 hPa 0,0 mm 11,7 km/h (2 Bft) W-NW 292 0,4 C 16,1 km/h (3 Bft)
08.01.2016 01:25 2,7 C 2,0 C 84 % 1004,8 hPa 0,0 mm 9,8 km/h (2 Bft) W 270 0,3 C 8,5 km/h (2 Bft)
08.01.2016 01:30 2,7 C 1,8 C 85 % 1004,8 hPa 0,0 mm 11,9 km/h (2 Bft) W 270 0,4 C 16,1 km/h (3 Bft)
08.01.2016 01:35 2,6 C 1,9 C 86 % 1005,1 hPa 0,0 mm 12,9 km/h (3 Bft) W-SW 247 0,5 C 12,4 km/h (3 Bft)
08.01.2016 01:40 2,6 C 1,7 C 86 % 1005,1 hPa 0,0 mm 10,6 km/h (2 Bft) W 270 0,5 C 14,5 km/h (3 Bft)
08.01.2016 01:45 2,6 C 1,8 C 87 % 1005,1 hPa 0,0 mm 9,6 km/h (2 Bft) W 270 0,7 C 10,6 km/h (2 Bft)
08.01.2016 01:50 2,6 C 1,7 C 87 % 1005,1 hPa 0,0 mm 9,8 km/h (2 Bft) W-SW 247 0,7 C 10,1 km/h (2 Bft)
08.01.2016 01:55 2,6 C 1,8 C 87 % 1005,5 hPa 0,0 mm 9,1 km/h (2 Bft) W-NW 292 0,7 C 12,7 km/h (3 Bft)
08.01.2016 02:00 2,6 C 2,0 C 87 % 1005,5 hPa 0,0 mm 7,5 km/h (2 Bft) W-NW 292 0,7 C 10,9 km/h (2 Bft)
08.01.2016 02:05 2,6 C 1,9 C 87 % 1005,5 hPa 0,0 mm 7,8 km/h (2 Bft) W-NW 292 0,7 C 4,9 km/h (1 Bft)
08.01.2016 02:10 2,6 C 2,0 C 87 % 1005,5 hPa 0,0 mm 8,0 km/h (2 Bft) W 270 0,7 C 6,7 km/h (2 Bft)
08.01.2016 02:15 2,7 C 2,1 C 86 % 1005,8 hPa 0,0 mm 8,0 km/h (2 Bft) W-SW 247 0,6 C 7,0 km/h (2 Bft)
08.01.2016 02:20 2,7 C 2,0 C 86 % 1005,8 hPa 0,0 mm 9,1 km/h (2 Bft) W-NW 292 0,6 C 21,2 km/h (4 Bft)
08.01.2016 02:25 2,7 C 2,0 C 86 % 1005,8 hPa 0,0 mm 9,6 km/h (2 Bft) W 270 0,6 C 17,6 km/h (3 Bft)
08.01.2016 02:30 2,8 C 2,0 C 85 % 1005,8 hPa 0,0 mm 11,4 km/h (2 Bft) NW 315 0,5 C 14,0 km/h (3 Bft)
08.01.2016 02:35 2,9 C 2,0 C 85 % 1006,1 hPa 0,0 mm 12,2 km/h (2 Bft) NW 315 0,6 C 11,7 km/h (2 Bft)
08.01.2016 02:40 2,9 C 2,3 C 84 % 1006,1 hPa 0,0 mm 14,2 km/h (3 Bft) W-NW 292 0,5 C 22,0 km/h (4 Bft)
08.01.2016 02:45 2,9 C 2,0 C 83 % 1006,1 hPa 0,0 mm 14,2 km/h (3 Bft) W-SW 247 0,3 C 9,8 km/h (2 Bft)
08.01.2016 02:50 2,8 C 2,2 C 83 % 1006,1 hPa 0,0 mm 14,2 km/h (3 Bft) NW 315 0,2 C 23,3 km/h (4 Bft)
08.01.2016 02:55 2,9 C 2,2 C 82 % 1006,3 hPa 0,0 mm 14,5 km/h (3 Bft) W 270 0,1 C 21,0 km/h (4 Bft)
08.01.2016 03:00 2,9 C 2,1 C 82 % 1006,3 hPa 0,0 mm 15,3 km/h (3 Bft) W-NW 292 0,1 C 23,3 km/h (4 Bft)
08.01.2016 03:05 2,9 C 1,8 C 81 % 1006,3 hPa 0,0 mm 15,0 km/h (3 Bft) S 180 -0,0 C 14,0 km/h (3 Bft)
08.01.2016 03:10 3,0 C 2,2 C 80 % 1006,3 hPa 0,0 mm 16,6 km/h (3 Bft) W-NW 292 -0,1 C 39,9 km/h (6 Bft)
08.01.2016 03:15 2,9 C 2,2 C 80 % 1006,4 hPa 0,0 mm 14,8 km/h (3 Bft) W 270 -0,2 C 9,3 km/h (2 Bft)
08.01.2016 03:20 2,9 C 2,1 C 80 % 1006,4 hPa 0,0 mm 11,4 km/h (2 Bft) W 270 -0,2 C 9,8 km/h (2 Bft)
08.01.2016 03:25 2,8 C 2,1 C 80 % 1006,4 hPa 0,0 mm 10,9 km/h (2 Bft) W-NW 292 -0,3 C 8,8 km/h (2 Bft)
08.01.2016 03:30 2,8 C 2,0 C 80 % 1006,4 hPa 0,0 mm 11,1 km/h (2 Bft) SO 135 -0,3 C 12,9 km/h (3 Bft)
08.01.2016 03:35 2,8 C 2,0 C 80 % 1006,5 hPa 0,0 mm 11,1 km/h (2 Bft) W-SW 247 -0,3 C 11,1 km/h (2 Bft)
08.01.2016 03:40 2,8 C 2,0 C 80 % 1006,5 hPa 0,0 mm 10,9 km/h (2 Bft) W-SW 247 -0,3 C 16,6 km/h (3 Bft)
08.01.2016 03:43 2,8 C 2,0 C 79 % 1006,5 hPa 0,0 mm 10,9 km/h (2 Bft) W 270 -0,5 C 4,4 km/h (1 Bft)
08.01.2016 03:46 2,8 C 2,0 C 79 % 1006,5 hPa 0,0 mm 10,9 km/h (2 Bft) W 270 -0,5 C 4,4 km/h (1 Bft)
08.01.2016 03:50 2,8 C 2,0 C 79 % 1006,5 hPa 0,0 mm 11,7 km/h (2 Bft) W-NW 292 -0,5 C 10,4 km/h (2 Bft)
08.01.2016 03:55 2,6 C 1,9 C 79 % 1006,3 hPa 0,0 mm 10,1 km/h (2 Bft) W 270 -0,7 C 12,2 km/h (2 Bft)
08.01.2016 04:00 2,5 C 1,8 C 79 % 1006,3 hPa 0,0 mm 9,8 km/h (2 Bft) W-SW 247 -0,8 C 8,0 km/h (2 Bft)
08.01.2016 04:05 2,4 C 1,5 C 79 % 1006,3 hPa 0,0 mm 10,9 km/h (2 Bft) W-SW 247 -0,9 C 11,1 km/h (2 Bft)
08.01.2016 04:10 2,3 C 1,5 C 80 % 1006,3 hPa 0,0 mm 9,3 km/h (2 Bft) SW 225 -0,8 C 8,8 km/h (2 Bft)
08.01.2016 04:15 2,4 C 1,6 C 79 % 1006,4 hPa 0,0 mm 9,6 km/h (2 Bft) W 270 -0,9 C 14,5 km/h (3 Bft)
08.01.2016 04:20 2,3 C 1,6 C 80 % 1006,4 hPa 0,0 mm 8,8 km/h (2 Bft) W-NW 292 -0,8 C 8,5 km/h (2 Bft)
08.01.2016 04:25 2,3 C 1,6 C 80 % 1006,4 hPa 0,0 mm 8,5 km/h (2 Bft) NW 315 -0,8 C 6,0 km/h (2 Bft)
08.01.2016 04:30 2,4 C 1,5 C 79 % 1006,4 hPa 0,0 mm 10,4 km/h (2 Bft) NW 315 -0,9 C 14,8 km/h (3 Bft)
08.01.2016 04:35 2,4 C 1,5 C 79 % 1006,5 hPa 0,0 mm 10,1 km/h (2 Bft) W 270 -0,9 C 8,5 km/h (2 Bft)
08.01.2016 04:40 2,3 C 1,5 C 79 % 1006,5 hPa 0,0 mm 9,6 km/h (2 Bft) W 270 -1,0 C 16,6 km/h (3 Bft)
08.01.2016 04:45 2,3 C 1,4 C 79 % 1006,5 hPa 0,0 mm 10,1 km/h (2 Bft) W 270 -1,0 C 21,0 km/h (4 Bft)
08.01.2016 04:50 2,4 C 1,4 C 78 % 1006,5 hPa 0,0 mm 12,2 km/h (2 Bft) W-SW 247 -1,0 C 10,1 km/h (2 Bft)
08.01.2016 04:55 2,4 C 1,6 C 78 % 1007,0 hPa 0,0 mm 12,4 km/h (3 Bft) W-SW 247 -1,0 C 14,5 km/h (3 Bft)
08.01.2016 05:00 2,4 C 1,6 C 78 % 1007,0 hPa 0,0 mm 10,4 km/h (2 Bft) W 270 -1,0 C 8,8 km/h (2 Bft)
08.01.2016 05:05 2,3 C 1,6 C 78 % 1007,0 hPa 0,0 mm 9,1 km/h (2 Bft) W 270 -1,1 C 18,1 km/h (3 Bft)
08.01.2016 05:10 2,2 C 1,7 C 78 % 1007,0 hPa 0,0 mm 7,3 km/h (2 Bft) W 270 -1,2 C 14,2 km/h (3 Bft)
08.01.2016 05:15 2,2 C 1,6 C 78 % 1007,4 hPa 0,0 mm 8,0 km/h (2 Bft) NW 315 -1,2 C 14,5 km/h (3 Bft)
08.01.2016 05:20 2,1 C 1,5 C 79 % 1007,4 hPa 0,0 mm 7,5 km/h (2 Bft) W-SW 247 -1,2 C 8,3 km/h (2 Bft)
08.01.2016 05:25 2,1 C 1,4 C 79 % 1007,4 hPa 0,0 mm 7,3 km/h (2 Bft) W-SW 247 -1,2 C 9,8 km/h (2 Bft)
08.01.2016 05:30 2,0 C 1,3 C 79 % 1007,4 hPa 0,0 mm 7,3 km/h (2 Bft) W-SW 247 -1,2 C 7,0 km/h (2 Bft)
08.01.2016 05:35 2,0 C 1,3 C 79 % 1007,3 hPa 0,0 mm 7,5 km/h (2 Bft) W 270 -1,2 C 12,7 km/h (3 Bft)
08.01.2016 05:40 1,9 C 1,2 C 79 % 1007,3 hPa 0,0 mm 6,7 km/h (2 Bft) W-SW 247 -1,3 C 6,5 km/h (2 Bft)
08.01.2016 05:45 1,8 C 1,1 C 79 % 1007,3 hPa 0,0 mm 6,7 km/h (2 Bft) W 270 -1,4 C 3,4 km/h (1 Bft)
08.01.2016 05:50 1,9 C 1,2 C 80 % 1007,3 hPa 0,0 mm 6,7 km/h (2 Bft) W-SW 247 -1,2 C 9,3 km/h (2 Bft)
08.01.2016 05:55 1,8 C 1,2 C 80 % 1007,5 hPa 0,0 mm 6,5 km/h (2 Bft) W 270 -1,3 C 5,4 km/h (1 Bft)
08.01.2016 06:00 1,9 C 1,2 C 80 % 1007,5 hPa 0,0 mm 7,0 km/h (2 Bft) SW 225 -1,2 C 17,3 km/h (3 Bft)
08.01.2016 06:05 1,9 C 1,2 C 80 % 1007,5 hPa 0,0 mm 7,3 km/h (2 Bft) W-SW 247 -1,2 C 8,0 km/h (2 Bft)
08.01.2016 06:10 1,7 C 1,1 C 80 % 1007,5 hPa 0,0 mm 6,5 km/h (2 Bft) W 270 -1,4 C 6,5 km/h (2 Bft)
08.01.2016 06:15 1,8 C 1,3 C 80 % 1007,7 hPa 0,0 mm 5,7 km/h (1 Bft) W-SW 247 -1,3 C 8,3 km/h (2 Bft)
08.01.2016 06:20 1,8 C 1,2 C 80 % 1007,7 hPa 0,0 mm 6,0 km/h (2 Bft) SW 225 -1,3 C 7,5 km/h (2 Bft)
08.01.2016 06:25 1,8 C 1,2 C 80 % 1007,7 hPa 0,0 mm 6,2 km/h (2 Bft) SW 225 -1,3 C 7,8 km/h (2 Bft)
08.01.2016 06:30 1,9 C 1,2 C 80 % 1007,7 hPa 0,0 mm 6,5 km/h (2 Bft) W 270 -1,2 C 8,8 km/h (2 Bft)
08.01.2016 06:35 2,0 C 1,3 C 79 % 1007,8 hPa 0,0 mm 6,5 km/h (2 Bft) W 270 -1,2 C 6,5 km/h (2 Bft)
08.01.2016 06:40 1,8 C 1,3 C 79 % 1007,8 hPa 0,0 mm 5,4 km/h (1 Bft) SW 225 -1,4 C 3,1 km/h (1 Bft)
08.01.2016 06:45 1,4 C 1,2 C 79 % 1007,8 hPa 0,0 mm 3,6 km/h (1 Bft) W-SW 247 -1,8 C 5,7 km/h (1 Bft)
08.01.2016 06:50 1,4 C 1,1 C 79 % 1007,8 hPa 0,0 mm 2,6 km/h (1 Bft) W-SW 247 -1,8 C 4,7 km/h (1 Bft)
08.01.2016 06:55 1,3 C 0,9 C 79 % 1007,7 hPa 0,0 mm 3,1 km/h (1 Bft) SW 225 -1,9 C 3,9 km/h (1 Bft)
08.01.2016 07:00 1,4 C 1,0 C 79 % 1007,7 hPa 0,0 mm 3,1 km/h (1 Bft) W-SW 247 -1,8 C 6,5 km/h (2 Bft)
08.01.2016 07:05 1,6 C 1,1 C 79 % 1007,7 hPa 0,0 mm 4,4 km/h (1 Bft) W-SW 247 -1,6 C 4,7 km/h (1 Bft)
08.01.2016 07:10 1,8 C 1,3 C 79 % 1007,7 hPa 0,0 mm 5,2 km/h (1 Bft) N 360 -1,4 C 5,7 km/h (1 Bft)
08.01.2016 07:15 1,6 C 1,3 C 78 % 1008,0 hPa 0,0 mm 4,4 km/h (1 Bft) SW 225 -1,8 C 6,0 km/h (2 Bft)
08.01.2016 07:20 1,8 C 1,5 C 78 % 1008,0 hPa 0,0 mm 3,6 km/h (1 Bft) W-SW 247 -1,6 C 3,9 km/h (1 Bft)
08.01.2016 07:25 1,7 C 1,4 C 78 % 1008,0 hPa 0,0 mm 3,4 km/h (1 Bft) W-NW 292 -1,7 C 0,0 km/h (0 Bft)
08.01.2016 07:30 1,4 C 1,2 C 78 % 1008,0 hPa 0,0 mm 1,6 km/h (1 Bft) W-SW 247 -2,0 C 4,1 km/h (1 Bft)
08.01.2016 07:35 1,5 C 1,2 C 78 % 1007,8 hPa 0,0 mm 0,8 km/h (0 Bft) SW 225 -1,9 C 0,0 km/h (0 Bft)
08.01.2016 07:40 1,7 C 1,2 C 77 % 1007,8 hPa 0,0 mm 1,0 km/h (0 Bft) S-SW 202 -1,9 C 2,6 km/h (1 Bft)
08.01.2016 07:45 1,7 C 1,2 C 77 % 1007,8 hPa 0,0 mm 1,3 km/h (1 Bft) SW 225 -1,9 C 2,8 km/h (1 Bft)
08.01.2016 07:50 1,6 C 1,1 C 76 % 1007,8 hPa 0,0 mm 1,6 km/h (1 Bft) SW 225 -2,2 C 4,9 km/h (1 Bft)
08.01.2016 07:55 1,7 C 1,2 C 76 % 1008,2 hPa 0,0 mm 2,3 km/h (1 Bft) S 180 -2,1 C 4,4 km/h (1 Bft)
08.01.2016 08:00 1,4 C 1,0 C 76 % 1008,2 hPa 0,0 mm 2,8 km/h (1 Bft) S 180 -2,4 C 2,8 km/h (1 Bft)
08.01.2016 08:05 1,1 C 0,8 C 76 % 1008,2 hPa 0,0 mm 2,6 km/h (1 Bft) SW 225 -2,6 C 3,9 km/h (1 Bft)
08.01.2016 08:10 1,4 C 0,9 C 76 % 1008,2 hPa 0,0 mm 4,4 km/h (1 Bft) S-SW 202 -2,4 C 6,7 km/h (2 Bft)
08.01.2016 08:15 1,5 C 0,9 C 76 % 1008,5 hPa 0,0 mm 5,4 km/h (1 Bft) SW 225 -2,3 C 6,5 km/h (2 Bft)
08.01.2016 08:20 1,5 C 0,8 C 76 % 1008,5 hPa 0,0 mm 6,2 km/h (2 Bft) SW 225 -2,3 C 6,0 km/h (2 Bft)
08.01.2016 08:25 1,5 C 0,9 C 76 % 1008,5 hPa 0,0 mm 5,4 km/h (1 Bft) W-SW 247 -2,3 C 4,9 km/h (1 Bft)
08.01.2016 08:30 1,3 C 1,0 C 75 % 1008,5 hPa 0,0 mm 4,4 km/h (1 Bft) S 180 -2,6 C 0,0 km/h (0 Bft)
08.01.2016 08:35 0,2 C 0,2 C 75 % 1008,9 hPa 0,0 mm 3,1 km/h (1 Bft) S-SO 157 -3,7 C 0,0 km/h (0 Bft)
08.01.2016 08:40 -0,5 C -0,6 C 75 % 1008,9 hPa 0,0 mm 0,3 km/h (0 Bft) NO 45 -4,4 C 0,0 km/h (0 Bft)
08.01.2016 08:45 -0,6 C -0,8 C 76 % 1008,9 hPa 0,0 mm 0,3 km/h (0 Bft) O-NO 67 -4,3 C 0,0 km/h (0 Bft)
08.01.2016 08:50 -0,9 C -1,2 C 77 % 1008,9 hPa 0,0 mm 0,0 km/h (0 Bft) O 90 -4,4 C 0,0 km/h (0 Bft)
08.01.2016 08:55 -0,6 C -1,1 C 78 % 1008,9 hPa 0,0 mm 0,0 km/h (0 Bft) SO 135 -3,9 C 0,0 km/h (0 Bft)
08.01.2016 09:00 -0,1 C -0,6 C 77 % 1008,9 hPa 0,0 mm 1,6 km/h (1 Bft) SO 135 -3,6 C 4,1 km/h (1 Bft)
08.01.2016 09:05 0,1 C -0,3 C 77 % 1008,9 hPa 0,0 mm 2,3 km/h (1 Bft) SO 135 -3,4 C 3,9 km/h (1 Bft)
08.01.2016 09:10 0,5 C 0,1 C 78 % 1008,9 hPa 0,0 mm 2,6 km/h (1 Bft) SO 135 -2,9 C 2,8 km/h (1 Bft)
08.01.2016 09:15 0,6 C 0,2 C 78 % 1008,7 hPa 0,0 mm 1,8 km/h (1 Bft) SO 135 -2,8 C 0,0 km/h (0 Bft)
08.01.2016 09:20 0,8 C 0,5 C 78 % 1008,7 hPa 0,0 mm 0,3 km/h (0 Bft) W-SW 247 -2,6 C 0,0 km/h (0 Bft)
08.01.2016 09:25 0,3 C 0,1 C 79 % 1008,7 hPa 0,0 mm 0,0 km/h (0 Bft) N-NW 337 -2,9 C 0,0 km/h (0 Bft)
08.01.2016 09:30 0,2 C -0,1 C 79 % 1008,7 hPa 0,0 mm 0,0 km/h (0 Bft) SO 135 -3,0 C 0,0 km/h (0 Bft)
08.01.2016 09:35 -0,1 C -0,3 C 79 % 1008,8 hPa 0,0 mm 0,0 km/h (0 Bft) N-NW 337 -3,3 C 0,0 km/h (0 Bft)
08.01.2016 09:40 0,0 C -0,2 C 80 % 1008,8 hPa 0,0 mm 0,0 km/h (0 Bft) N 360 -3,0 C 0,0 km/h (0 Bft)
08.01.2016 09:45 -0,2 C -0,4 C 80 % 1008,8 hPa 0,0 mm 0,3 km/h (0 Bft) W 270 -3,2 C 0,0 km/h (0 Bft)
08.01.2016 09:47 -0,2 C -0,4 C 80 % 1008,8 hPa 0,0 mm 0,3 km/h (0 Bft) W 270 -3,2 C 0,0 km/h (0 Bft)
08.01.2016 09:50 0,7 C 0,3 C 82 % 1008,8 hPa 0,0 mm 0,8 km/h (0 Bft) S 180 -2,0 C 4,7 km/h (1 Bft)
08.01.2016 09:55 1,0 C 0,7 C 79 % 1009,0 hPa 0,0 mm 1,8 km/h (1 Bft) S-SO 157 -2,2 C 0,0 km/h (0 Bft)
08.01.2016 10:00 0,9 C 0,9 C 79 % 1009,0 hPa 0,0 mm 2,6 km/h (1 Bft) N 360 -2,3 C 0,0 km/h (0 Bft)
08.01.2016 10:05 0,8 C 0,8 C 81 % 1009,0 hPa 0,0 mm 1,6 km/h (1 Bft) SO 135 -2,1 C 0,0 km/h (0 Bft)
08.01.2016 10:10 0,8 C 1,0 C 79 % 1009,0 hPa 0,0 mm 0,0 km/h (0 Bft) S-SO 157 -2,4 C 0,0 km/h (0 Bft)
08.01.2016 10:15 0,9 C 1,2 C 79 % 1008,9 hPa 0,0 mm 0,3 km/h (0 Bft) S-SO 157 -2,3 C 0,0 km/h (0 Bft)
08.01.2016 10:20 0,7 C 0,9 C 79 % 1008,9 hPa 0,0 mm 0,5 km/h (0 Bft) SO 135 -2,5 C 0,0 km/h (0 Bft)
08.01.2016 10:25 0,8 C 1,0 C 80 % 1008,9 hPa 0,0 mm 0,5 km/h (0 Bft) O-SO 112 -2,2 C 0,0 km/h (0 Bft)
08.01.2016 10:30 0,4 C 0,5 C 81 % 1008,9 hPa 0,0 mm 0,0 km/h (0 Bft) O-SO 112 -2,5 C 0,0 km/h (0 Bft)
08.01.2016 10:35 0,2 C 0,2 C 81 % 1008,5 hPa 0,0 mm 0,0 km/h (0 Bft) NW 315 -2,7 C 0,0 km/h (0 Bft)
08.01.2016 10:40 0,3 C 0,1 C 82 % 1008,5 hPa 0,0 mm 0,0 km/h (0 Bft) O-SO 112 -2,4 C 0,0 km/h (0 Bft)
08.01.2016 10:45 0,5 C 0,3 C 82 % 1008,5 hPa 0,0 mm 0,0 km/h (0 Bft) NW 315 -2,2 C 0,0 km/h (0 Bft)
08.01.2016 10:50 0,1 C 0,1 C 82 % 1008,5 hPa 0,0 mm 0,0 km/h (0 Bft) NW 315 -2,6 C 0,0 km/h (0 Bft)
08.01.2016 10:55 0,3 C 0,2 C 83 % 1008,4 hPa 0,0 mm 0,0 km/h (0 Bft) NW 315 -2,2 C 0,0 km/h (0 Bft)
08.01.2016 11:00 0,5 C 0,4 C 83 % 1008,4 hPa 0,0 mm 0,0 km/h (0 Bft) N-NO 22 -2,0 C 0,0 km/h (0 Bft)
08.01.2016 11:05 0,6 C 0,6 C 81 % 1008,4 hPa 0,0 mm 0,3 km/h (0 Bft) S 180 -2,3 C 0,0 km/h (0 Bft)
08.01.2016 11:10 0,9 C 1,2 C 81 % 1008,4 hPa 0,0 mm 0,5 km/h (0 Bft) O-NO 67 -2,0 C 0,0 km/h (0 Bft)
08.01.2016 11:15 1,4 C 1,5 C 81 % 1008,3 hPa 0,0 mm 0,3 km/h (0 Bft) O-NO 67 -1,5 C 0,0 km/h (0 Bft)
08.01.2016 11:20 1,9 C 1,9 C 85 % 1008,3 hPa 0,0 mm 1,3 km/h (1 Bft) S 180 -0,3 C 0,0 km/h (0 Bft)
08.01.2016 11:25 1,8 C 2,2 C 84 % 1008,3 hPa 0,0 mm 1,3 km/h (1 Bft) S 180 -0,6 C 0,0 km/h (0 Bft)
08.01.2016 11:30 2,1 C 2,7 C 84 % 1008,3 hPa 0,0 mm 0,0 km/h (0 Bft) S 180 -0,3 C 0,0 km/h (0 Bft)
08.01.2016 11:35 2,5 C 3,3 C 84 % 1008,3 hPa 0,0 mm 0,0 km/h (0 Bft) W 270 0,1 C 0,0 km/h (0 Bft)
08.01.2016 11:40 2,9 C 4,3 C 81 % 1008,3 hPa 0,7 mm 0,0 km/h (0 Bft) N-NO 22 -0,0 C 0,0 km/h (0 Bft)
08.01.2016 11:45 3,3 C 4,9 C 80 % 1008,3 hPa 0,0 mm 0,0 km/h (0 Bft) N-NO 22 0,2 C 0,0 km/h (0 Bft)
08.01.2016 11:50 3,4 C 5,5 C 79 % 1008,3 hPa 0,0 mm 0,0 km/h (0 Bft) O-NO 67 0,1 C 0,0 km/h (0 Bft)
08.01.2016 11:55 3,6 C 5,6 C 79 % 1008,1 hPa 0,0 mm 0,0 km/h (0 Bft) O-SO 112 0,3 C 0,0 km/h (0 Bft)
08.01.2016 12:00 3,8 C 5,8 C 81 % 1008,1 hPa 0,0 mm 0,3 km/h (0 Bft) O-NO 67 0,8 C 0,0 km/h (0 Bft)
08.01.2016 12:05 3,9 C 5,9 C 81 % 1008,1 hPa 0,0 mm 0,3 km/h (0 Bft) NO 45 0,9 C 0,0 km/h (0 Bft)
08.01.2016 12:10 4,2 C 6,2 C 80 % 1008,1 hPa 0,0 mm 0,0 km/h (0 Bft) O-NO 67 1,1 C 0,0 km/h (0 Bft)
08.01.2016 12:15 4,4 C 6,4 C 78 % 1007,9 hPa 0,0 mm 0,5 km/h (0 Bft) NO 45 0,9 C 4,1 km/h (1 Bft)
08.01.2016 12:20 4,6 C 6,4 C 78 % 1007,9 hPa 0,0 mm 1,6 km/h (1 Bft) NO 45 1,1 C 0,0 km/h (0 Bft)
08.01.2016 12:25 4,7 C 6,4 C 78 % 1007,9 hPa 0,0 mm 1,3 km/h (1 Bft) NO 45 1,2 C 3,1 km/h (1 Bft)
08.01.2016 12:30 4,7 C 6,3 C 77 % 1007,9 hPa 0,0 mm 0,3 km/h (0 Bft) O-NO 67 1,0 C 0,0 km/h (0 Bft)
08.01.2016 12:35 4,7 C 6,1 C 76 % 1007,8 hPa 0,0 mm 0,3 km/h (0 Bft) O-NO 67 0,8 C 0,0 km/h (0 Bft)
08.01.2016 12:40 4,6 C 5,9 C 75 % 1007,8 hPa 0,0 mm 0,0 km/h (0 Bft) O-NO 67 0,6 C 0,0 km/h (0 Bft)
08.01.2016 12:45 4,5 C 5,9 C 75 % 1007,8 hPa 0,0 mm 0,0 km/h (0 Bft) O 90 0,5 C 0,0 km/h (0 Bft)
08.01.2016 12:50 4,5 C 5,6 C 75 % 1007,8 hPa 0,0 mm 0,5 km/h (0 Bft) O 90 0,5 C 0,0 km/h (0 Bft)
08.01.2016 12:55 4,4 C 5,5 C 75 % 1007,7 hPa 0,0 mm 0,5 km/h (0 Bft) O 90 0,4 C 0,0 km/h (0 Bft)
08.01.2016 13:00 4,4 C 5,5 C 75 % 1007,7 hPa 0,0 mm 0,0 km/h (0 Bft) O-SO 112 0,4 C 0,0 km/h (0 Bft)
08.01.2016 13:05 4,3 C 5,4 C 75 % 1007,7 hPa 0,0 mm 0,0 km/h (0 Bft) O 90 0,3 C 0,0 km/h (0 Bft)
08.01.2016 13:10 4,4 C 5,2 C 75 % 1007,7 hPa 0,0 mm 0,0 km/h (0 Bft) SO 135 0,4 C 0,0 km/h (0 Bft)
08.01.2016 13:15 4,5 C 5,2 C 75 % 1007,4 hPa 0,0 mm 0,0 km/h (0 Bft) SO 135 0,5 C 0,0 km/h (0 Bft)
08.01.2016 13:20 4,5 C 5,2 C 75 % 1007,4 hPa 0,0 mm 0,0 km/h (0 Bft) SO 135 0,5 C 0,0 km/h (0 Bft)
08.01.2016 13:25 4,7 C 5,5 C 75 % 1007,4 hPa 0,0 mm 0,0 km/h (0 Bft) O-SO 112 0,7 C 0,0 km/h (0 Bft)
08.01.2016 13:30 4,9 C 5,9 C 75 % 1007,4 hPa 0,0 mm 0,3 km/h (0 Bft) NO 45 0,8 C 4,9 km/h (1 Bft)
08.01.2016 13:35 5,0 C 6,1 C 75 % 1007,2 hPa 0,0 mm 1,3 km/h (1 Bft) O-NO 67 0,9 C 3,4 km/h (1 Bft)
08.01.2016 13:40 5,1 C 6,3 C 74 % 1007,2 hPa 0,0 mm 2,1 km/h (1 Bft) O-NO 67 0,9 C 2,6 km/h (1 Bft)
08.01.2016 13:45 5,1 C 6,3 C 74 % 1007,2 hPa 0,0 mm 1,8 km/h (1 Bft) O-NO 67 0,9 C 4,7 km/h (1 Bft)
08.01.2016 13:50 5,1 C 6,1 C 74 % 1007,2 hPa 0,0 mm 2,1 km/h (1 Bft) O-NO 67 0,9 C 0,0 km/h (0 Bft)
08.01.2016 13:55 5,0 C 6,1 C 74 % 1007,0 hPa 0,0 mm 1,6 km/h (1 Bft) O-SO 112 0,8 C 0,0 km/h (0 Bft)
08.01.2016 14:00 4,9 C 5,8 C 74 % 1007,0 hPa 0,0 mm 0,0 km/h (0 Bft) NO 45 0,7 C 0,0 km/h (0 Bft)
08.01.2016 14:05 4,8 C 5,8 C 74 % 1007,0 hPa 0,0 mm 0,0 km/h (0 Bft) O-SO 112 0,6 C 2,6 km/h (1 Bft)
08.01.2016 14:10 4,7 C 5,5 C 74 % 1007,0 hPa 0,0 mm 0,3 km/h (0 Bft) SO 135 0,5 C 0,0 km/h (0 Bft)
08.01.2016 14:15 4,7 C 5,5 C 74 % 1006,6 hPa 0,0 mm 0,5 km/h (0 Bft) NO 45 0,5 C 0,0 km/h (0 Bft)
08.01.2016 14:20 4,6 C 5,2 C 74 % 1006,6 hPa 0,0 mm 1,3 km/h (1 Bft) O-NO 67 0,4 C 0,0 km/h (0 Bft)
08.01.2016 14:25 4,5 C 5,2 C 74 % 1006,6 hPa 0,0 mm 1,0 km/h (0 Bft) NO 45 0,3 C 0,0 km/h (0 Bft)
08.01.2016 14:30 4,5 C 5,2 C 74 % 1006,6 hPa 0,0 mm 0,0 km/h (0 Bft) NO 45 0,3 C 0,0 km/h (0 Bft)
08.01.2016 14:35 4,5 C 5,2 C 74 % 1006,5 hPa 0,0 mm 0,3 km/h (0 Bft) S-SO 157 0,3 C 0,0 km/h (0 Bft)
08.01.2016 14:40 4,5 C 5,2 C 75 % 1006,5 hPa 0,0 mm 0,3 km/h (0 Bft) NO 45 0,5 C 0,0 km/h (0 Bft)
08.01.2016 14:45 4,5 C 5,1 C 75 % 1006,5 hPa 0,0 mm 0,0 km/h (0 Bft) NO 45 0,5 C 0,0 km/h (0 Bft)
08.01.2016 14:50 4,4 C 5,0 C 75 % 1006,5 hPa 0,0 mm 0,0 km/h (0 Bft) O-NO 67 0,4 C 0,0 km/h (0 Bft)
08.01.2016 14:55 4,3 C 4,9 C 75 % 1006,4 hPa 0,0 mm 0,0 km/h (0 Bft) N-NO 22 0,3 C 0,0 km/h (0 Bft)
08.01.2016 15:00 4,3 C 4,8 C 76 % 1006,4 hPa 0,0 mm 0,3 km/h (0 Bft) W 270 0,5 C 2,6 km/h (1 Bft)
08.01.2016 15:05 4,3 C 4,7 C 76 % 1006,4 hPa 0,0 mm 1,0 km/h (0 Bft) NW 315 0,5 C 0,0 km/h (0 Bft)
08.01.2016 15:10 4,3 C 4,7 C 76 % 1006,4 hPa 0,0 mm 0,8 km/h (0 Bft) O-NO 67 0,5 C 0,0 km/h (0 Bft)
08.01.2016 15:15 4,4 C 4,8 C 76 % 1006,5 hPa 0,0 mm 0,0 km/h (0 Bft) O-NO 67 0,5 C 0,0 km/h (0 Bft)
08.01.2016 15:20 4,4 C 4,6 C 76 % 1006,5 hPa 0,0 mm 1,0 km/h (0 Bft) NO 45 0,5 C 4,1 km/h (1 Bft)
08.01.2016 15:25 4,4 C 4,6 C 76 % 1006,5 hPa 0,0 mm 1,0 km/h (0 Bft) O 90 0,5 C 0,0 km/h (0 Bft)
08.01.2016 15:30 4,3 C 4,6 C 76 % 1006,5 hPa 0,0 mm 0,5 km/h (0 Bft) O 90 0,5 C 6,2 km/h (2 Bft)
08.01.2016 15:35 4,2 C 4,5 C 75 % 1006,4 hPa 0,0 mm 1,3 km/h (1 Bft) W-SW 247 0,2 C 3,1 km/h (1 Bft)
08.01.2016 15:40 4,2 C 4,2 C 75 % 1006,4 hPa 0,0 mm 1,6 km/h (1 Bft) SO 135 0,2 C 0,0 km/h (0 Bft)
08.01.2016 15:45 4,0 C 4,1 C 75 % 1006,4 hPa 0,0 mm 0,3 km/h (0 Bft) SO 135 -0,0 C 0,0 km/h (0 Bft)
08.01.2016 15:48 4,0 C 4,1 C 75 % 1006,4 hPa 0,0 mm 0,3 km/h (0 Bft) SO 135 -0,0 C 0,0 km/h (0 Bft)
08.01.2016 15:50 4,0 C 4,0 C 75 % 1006,4 hPa 0,0 mm 0,0 km/h (0 Bft) O-SO 112 -0,0 C 0,0 km/h (0 Bft)
08.01.2016 15:55 3,8 C 3,8 C 75 % 1006,3 hPa 0,0 mm 0,0 km/h (0 Bft) W-SW 247 -0,2 C 0,0 km/h (0 Bft)
08.01.2016 16:00 3,7 C 3,6 C 76 % 1006,3 hPa 0,0 mm 0,0 km/h (0 Bft) S-SO 157 -0,1 C 0,0 km/h (0 Bft)
08.01.2016 16:05 3,6 C 3,5 C 77 % 1006,3 hPa 0,0 mm 0,0 km/h (0 Bft) S-SO 157 -0,0 C 0,0 km/h (0 Bft)
08.01.2016 16:10 3,5 C 3,4 C 78 % 1006,3 hPa 0,0 mm 0,0 km/h (0 Bft) S-SO 157 0,0 C 0,0 km/h (0 Bft)
08.01.2016 16:15 3,4 C 3,2 C 78 % 1006,4 hPa 0,0 mm 0,0 km/h (0 Bft) S-SO 157 -0,1 C 0,0 km/h (0 Bft)
08.01.2016 16:20 3,2 C 3,0 C 78 % 1006,4 hPa 0,0 mm 0,0 km/h (0 Bft) S-SO 157 -0,3 C 0,0 km/h (0 Bft)
08.01.2016 16:25 3,3 C 3,0 C 79 % 1006,4 hPa 0,0 mm 0,0 km/h (0 Bft) S-SO 157 0,0 C 0,0 km/h (0 Bft)
08.01.2016 16:30 3,2 C 2,9 C 80 % 1006,4 hPa 0,0 mm 0,0 km/h (0 Bft) S-SO 157 0,1 C 0,0 km/h (0 Bft)
08.01.2016 16:35 3,2 C 2,9 C 81 % 1006,8 hPa 0,0 mm 0,0 km/h (0 Bft) SO 135 0,3 C 0,0 km/h (0 Bft)
08.01.2016 16:40 3,1 C 2,8 C 82 % 1006,8 hPa 0,0 mm 0,0 km/h (0 Bft) S-SO 157 0,3 C 0,0 km/h (0 Bft)
08.01.2016 16:45 3,0 C 2,7 C 82 % 1006,8 hPa 0,0 mm 0,0 km/h (0 Bft) SW 225 0,2 C 0,0 km/h (0 Bft)
08.01.2016 16:50 2,9 C 2,6 C 84 % 1006,8 hPa 0,0 mm 0,0 km/h (0 Bft) S 180 0,5 C 2,6 km/h (1 Bft)
08.01.2016 16:55 2,8 C 2,6 C 84 % 1006,8 hPa 0,0 mm 0,3 km/h (0 Bft) W-SW 247 0,4 C 0,0 km/h (0 Bft)
08.01.2016 17:00 2,7 C 2,5 C 84 % 1006,8 hPa 0,0 mm 0,3 km/h (0 Bft) S 180 0,3 C 0,0 km/h (0 Bft)
08.01.2016 17:05 2,7 C 2,4 C 85 % 1006,8 hPa 0,0 mm 0,0 km/h (0 Bft) SO 135 0,4 C 0,0 km/h (0 Bft)
08.01.2016 17:10 2,6 C 2,4 C 85 % 1006,8 hPa 0,0 mm 0,0 km/h (0 Bft) SO 135 0,3 C 0,0 km/h (0 Bft)
08.01.2016 17:15 2,5 C 2,3 C 86 % 1006,6 hPa 0,0 mm 0,0 km/h (0 Bft) SO 135 0,4 C 0,0 km/h (0 Bft)
08.01.2016 17:20 2,4 C 2,2 C 86 % 1006,6 hPa 0,0 mm 0,0 km/h (0 Bft) S-SO 157 0,3 C 0,0 km/h (0 Bft)
08.01.2016 17:25 2,4 C 2,2 C 86 % 1006,6 hPa 0,0 mm 0,0 km/h (0 Bft) S-SO 157 0,3 C 0,0 km/h (0 Bft)
08.01.2016 17:30 2,3 C 2,1 C 86 % 1006,6 hPa 0,0 mm 0,0 km/h (0 Bft) S-SO 157 0,2 C 0,0 km/h (0 Bft)
08.01.2016 17:35 2,3 C 2,1 C 86 % 1006,6 hPa 0,0 mm 0,0 km/h (0 Bft) S 180 0,2 C 0,0 km/h (0 Bft)
08.01.2016 17:40 2,3 C 2,1 C 87 % 1006,6 hPa 0,0 mm 0,0 km/h (0 Bft) S 180 0,4 C 0,0 km/h (0 Bft)
08.01.2016 17:45 2,2 C 2,0 C 87 % 1006,6 hPa 0,0 mm 0,0 km/h (0 Bft) S 180 0,3 C 0,0 km/h (0 Bft)
08.01.2016 17:50 2,2 C 2,0 C 87 % 1006,6 hPa 0,0 mm 0,0 km/h (0 Bft) S 180 0,3 C 0,0 km/h (0 Bft)
08.01.2016 17:55 2,2 C 2,0 C 87 % 1006,5 hPa 0,7 mm 0,0 km/h (0 Bft) SO 135 0,3 C 0,0 km/h (0 Bft)
08.01.2016 18:00 2,1 C 1,9 C 87 % 1006,5 hPa 0,0 mm 0,0 km/h (0 Bft) SO 135 0,2 C 0,0 km/h (0 Bft)
08.01.2016 18:05 2,1 C 1,9 C 87 % 1006,5 hPa 0,0 mm 0,3 km/h (0 Bft) SO 135 0,2 C 0,0 km/h (0 Bft)
08.01.2016 18:10 2,1 C 1,9 C 87 % 1006,5 hPa 0,0 mm 0,3 km/h (0 Bft) O-NO 67 0,2 C 0,0 km/h (0 Bft)
08.01.2016 18:15 2,0 C 1,8 C 87 % 1006,5 hPa 0,0 mm 0,3 km/h (0 Bft) O-NO 67 0,1 C 4,4 km/h (1 Bft)
08.01.2016 18:20 2,0 C 1,8 C 88 % 1006,5 hPa 0,0 mm 0,3 km/h (0 Bft) SO 135 0,2 C 0,0 km/h (0 Bft)
08.01.2016 18:25 2,0 C 1,8 C 88 % 1006,5 hPa 0,0 mm 0,3 km/h (0 Bft) SO 135 0,2 C 0,0 km/h (0 Bft)
08.01.2016 18:30 1,9 C 1,7 C 88 % 1006,5 hPa 0,0 mm 0,3 km/h (0 Bft) SO 135 0,1 C 3,6 km/h (1 Bft)
08.01.2016 18:35 1,9 C 1,7 C 89 % 1006,2 hPa 0,0 mm 0,5 km/h (0 Bft) O-SO 112 0,3 C 0,0 km/h (0 Bft)
08.01.2016 18:40 1,8 C 1,6 C 89 % 1006,2 hPa 0,0 mm 0,5 km/h (0 Bft) O-SO 112 0,2 C 0,0 km/h (0 Bft)
08.01.2016 18:45 1,8 C 1,6 C 89 % 1006,2 hPa 0,0 mm 0,0 km/h (0 Bft) SO 135 0,2 C 0,0 km/h (0 Bft)
08.01.2016 18:50 1,7 C 1,5 C 89 % 1006,2 hPa 0,0 mm 0,0 km/h (0 Bft) O-SO 112 0,1 C 0,0 km/h (0 Bft)
08.01.2016 18:55 1,7 C 1,5 C 89 % 1006,0 hPa 0,0 mm 0,0 km/h (0 Bft) S 180 0,1 C 0,0 km/h (0 Bft)
08.01.2016 19:00 1,7 C 1,5 C 89 % 1006,0 hPa 0,0 mm 0,0 km/h (0 Bft) S 180 0,1 C 0,0 km/h (0 Bft)
08.01.2016 19:05 1,7 C 1,5 C 89 % 1006,0 hPa 0,0 mm 0,0 km/h (0 Bft) S 180 0,1 C 0,0 km/h (0 Bft)
08.01.2016 19:10 1,7 C 1,5 C 89 % 1006,0 hPa 0,7 mm 0,0 km/h (0 Bft) S 180 0,1 C 0,0 km/h (0 Bft)
08.01.2016 19:15 1,7 C 1,5 C 89 % 1005,9 hPa 0,0 mm 0,0 km/h (0 Bft) S-SO 157 0,1 C 0,0 km/h (0 Bft)
08.01.2016 19:20 1,8 C 1,6 C 89 % 1005,9 hPa 0,0 mm 0,0 km/h (0 Bft) O-SO 112 0,2 C 0,0 km/h (0 Bft)
08.01.2016 19:25 1,7 C 1,5 C 89 % 1005,9 hPa 0,0 mm 0,0 km/h (0 Bft) O-SO 112 0,1 C 0,0 km/h (0 Bft)
08.01.2016 19:30 1,7 C 1,5 C 89 % 1005,9 hPa 0,0 mm 0,0 km/h (0 Bft) O-SO 112 0,1 C 0,0 km/h (0 Bft)
08.01.2016 19:35 1,7 C 1,5 C 89 % 1005,7 hPa 0,0 mm 0,0 km/h (0 Bft) SO 135 0,1 C 0,0 km/h (0 Bft)
08.01.2016 19:40 1,7 C 1,5 C 89 % 1005,7 hPa 0,0 mm 0,0 km/h (0 Bft) O-SO 112 0,1 C 0,0 km/h (0 Bft)
08.01.2016 19:45 1,7 C 1,5 C 89 % 1005,7 hPa 0,0 mm 0,0 km/h (0 Bft) O-NO 67 0,1 C 0,0 km/h (0 Bft)
08.01.2016 19:50 1,6 C 1,5 C 90 % 1005,7 hPa 0,0 mm 0,0 km/h (0 Bft) O-NO 67 0,1 C 0,0 km/h (0 Bft)
08.01.2016 19:55 1,6 C 1,5 C 89 % 1005,4 hPa 0,0 mm 0,0 km/h (0 Bft) S 180 -0,0 C 0,0 km/h (0 Bft)
08.01.2016 20:00 1,6 C 1,5 C 90 % 1005,4 hPa 0,0 mm 0,0 km/h (0 Bft) S 180 0,1 C 0,0 km/h (0 Bft)
08.01.2016 20:05 1,6 C 1,5 C 90 % 1005,4 hPa 0,0 mm 0,0 km/h (0 Bft) S 180 0,1 C 0,0 km/h (0 Bft)
08.01.2016 20:10 1,6 C 1,5 C 90 % 1005,4 hPa 0,0 mm 0,0 km/h (0 Bft) S 180 0,1 C 0,0 km/h (0 Bft)
08.01.2016 20:15 1,6 C 1,5 C 90 % 1005,3 hPa 0,0 mm 0,0 km/h (0 Bft) S 180 0,1 C 0,0 km/h (0 Bft)
08.01.2016 20:20 1,6 C 1,5 C 90 % 1005,3 hPa 0,0 mm 0,0 km/h (0 Bft) W 270 0,1 C 0,0 km/h (0 Bft)
08.01.2016 20:25 1,6 C 1,5 C 90 % 1005,3 hPa 0,0 mm 0,0 km/h (0 Bft) W 270 0,1 C 0,0 km/h (0 Bft)
08.01.2016 20:30 1,6 C 1,5 C 90 % 1005,3 hPa 0,7 mm 0,0 km/h (0 Bft) W-SW 247 0,1 C 0,0 km/h (0 Bft)
08.01.2016 20:35 1,5 C 1,4 C 90 % 1005,2 hPa 0,0 mm 0,0 km/h (0 Bft) W-NW 292 0,0 C 0,0 km/h (0 Bft)
08.01.2016 20:40 1,6 C 1,5 C 90 % 1005,2 hPa 0,0 mm 0,0 km/h (0 Bft) W-NW 292 0,1 C 0,0 km/h (0 Bft)
08.01.2016 20:45 1,6 C 1,5 C 90 % 1005,2 hPa 0,0 mm 0,0 km/h (0 Bft) W 270 0,1 C 0,0 km/h (0 Bft)
08.01.2016 20:50 1,6 C 1,5 C 90 % 1005,2 hPa 0,0 mm 0,0 km/h (0 Bft) W 270 0,1 C 0,0 km/h (0 Bft)
08.01.2016 20:55 1,6 C 1,5 C 90 % 1005,0 hPa 0,0 mm 0,0 km/h (0 Bft) W 270 0,1 C 0,0 km/h (0 Bft)
08.01.2016 21:00 1,7 C 1,6 C 90 % 1005,0 hPa 0,0 mm 0,0 km/h (0 Bft) W 270 0,2 C 0,0 km/h (0 Bft)
08.01.2016 21:05 1,7 C 1,6 C 91 % 1005,0 hPa 0,0 mm 0,0 km/h (0 Bft) W 270 0,4 C 0,0 km/h (0 Bft)
08.01.2016 21:10 1,6 C 1,5 C 91 % 1005,0 hPa 0,0 mm 0,0 km/h (0 Bft) W 270 0,3 C 0,0 km/h (0 Bft)
08.01.2016 21:15 1,6 C 1,5 C 91 % 1004,9 hPa 0,0 mm 0,0 km/h (0 Bft) W 270 0,3 C 0,0 km/h (0 Bft)
08.01.2016 21:20 1,6 C 1,5 C 91 % 1004,9 hPa 0,0 mm 0,0 km/h (0 Bft) NW 315 0,3 C 0,0 km/h (0 Bft)
08.01.2016 21:25 1,6 C 1,5 C 91 % 1004,9 hPa 0,0 mm 0,0 km/h (0 Bft) NW 315 0,3 C 0,0 km/h (0 Bft)
08.01.2016 21:30 1,6 C 1,5 C 91 % 1004,9 hPa 0,0 mm 0,0 km/h (0 Bft) N-NW 337 0,3 C 0,0 km/h (0 Bft)
08.01.2016 21:35 1,6 C 1,5 C 91 % 1004,8 hPa 0,0 mm 0,0 km/h (0 Bft) N-NW 337 0,3 C 0,0 km/h (0 Bft)
08.01.2016 21:40 1,6 C 1,5 C 91 % 1004,8 hPa 0,0 mm 0,0 km/h (0 Bft) N-NW 337 0,3 C 0,0 km/h (0 Bft)
08.01.2016 21:45 1,6 C 1,5 C 91 % 1004,8 hPa 0,0 mm 0,0 km/h (0 Bft) W 270 0,3 C 0,0 km/h (0 Bft)
08.01.2016 21:48 1,6 C 1,5 C 91 % 1004,8 hPa 0,7 mm 0,0 km/h (0 Bft) W 270 0,3 C 0,0 km/h (0 Bft)
08.01.2016 21:49 1,6 C 1,5 C 91 % 1004,8 hPa 0,0 mm 0,0 km/h (0 Bft) W 270 0,3 C 0,0 km/h (0 Bft)
08.01.2016 21:50 1,6 C 1,5 C 91 % 1004,8 hPa 0,0 mm 0,0 km/h (0 Bft) W 270 0,3 C 0,0 km/h (0 Bft)
08.01.2016 21:55 1,6 C 1,5 C 91 % 1005,1 hPa 0,0 mm 0,0 km/h (0 Bft) W 270 0,3 C 0,0 km/h (0 Bft)
08.01.2016 22:00 1,6 C 1,5 C 91 % 1005,1 hPa 0,0 mm 0,0 km/h (0 Bft) W-NW 292 0,3 C 0,0 km/h (0 Bft)
08.01.2016 22:05 1,6 C 1,5 C 91 % 1005,1 hPa 0,0 mm 0,0 km/h (0 Bft) W-NW 292 0,3 C 0,0 km/h (0 Bft)
08.01.2016 22:10 1,7 C 1,6 C 91 % 1005,1 hPa 0,0 mm 0,0 km/h (0 Bft) W 270 0,4 C 0,0 km/h (0 Bft)
08.01.2016 22:15 1,7 C 1,6 C 91 % 1005,2 hPa 0,0 mm 0,0 km/h (0 Bft) W 270 0,4 C 0,0 km/h (0 Bft)
08.01.2016 22:20 1,7 C 1,6 C 91 % 1005,2 hPa 0,0 mm 0,0 km/h (0 Bft) W-NW 292 0,4 C 0,0 km/h (0 Bft)
08.01.2016 22:25 1,7 C 1,6 C 91 % 1005,2 hPa 0,7 mm 0,0 km/h (0 Bft) W-NW 292 0,4 C 0,0 km/h (0 Bft)
08.01.2016 22:30 1,8 C 1,7 C 91 % 1005,2 hPa 0,0 mm 0,0 km/h (0 Bft) W-NW 292 0,5 C 0,0 km/h (0 Bft)
08.01.2016 22:35 1,8 C 1,7 C 92 % 1005,2 hPa 0,0 mm 0,0 km/h (0 Bft) NW 315 0,6 C 0,0 km/h (0 Bft)
08.01.2016 22:40 1,9 C 1,8 C 92 % 1005,2 hPa 0,0 mm 0,0 km/h (0 Bft) N-NO 22 0,7 C 0,0 km/h (0 Bft)
08.01.2016 22:45 1,9 C 1,8 C 92 % 1005,2 hPa 0,0 mm 0,0 km/h (0 Bft) N-NO 22 0,7 C 0,0 km/h (0 Bft)
08.01.2016 22:50 1,9 C 1,8 C 92 % 1005,2 hPa 0,7 mm 0,0 km/h (0 Bft) N-NO 22 0,7 C 0,0 km/h (0 Bft)
08.01.2016 22:55 2,0 C 1,9 C 92 % 1005,2 hPa 0,0 mm 0,0 km/h (0 Bft) N-NO 22 0,8 C 0,0 km/h (0 Bft)
08.01.2016 23:00 2,0 C 2,0 C 87 % 1005,2 hPa 0,0 mm 1,0 km/h (0 Bft) W-NW 292 0,1 C 4,7 km/h (1 Bft)
08.01.2016 23:05 2,1 C 2,0 C 92 % 1005,2 hPa 0,0 mm 1,0 km/h (0 Bft) S-SO 157 0,9 C 0,0 km/h (0 Bft)
08.01.2016 23:10 2,1 C 2,0 C 92 % 1005,2 hPa 0,0 mm 0,5 km/h (0 Bft) S-SO 157 0,9 C 0,0 km/h (0 Bft)
08.01.2016 23:15 2,1 C 2,1 C 87 % 1005,1 hPa 0,7 mm 0,0 km/h (0 Bft) O-SO 112 0,2 C 0,0 km/h (0 Bft)
08.01.2016 23:20 2,1 C 2,1 C 87 % 1005,1 hPa 0,0 mm 0,0 km/h (0 Bft) O-SO 112 0,2 C 0,0 km/h (0 Bft)
08.01.2016 23:25 2,2 C 2,1 C 92 % 1005,1 hPa 0,0 mm 0,0 km/h (0 Bft) O-SO 112 1,0 C 0,0 km/h (0 Bft)
08.01.2016 23:30 2,2 C 2,1 C 92 % 1005,1 hPa 0,0 mm 0,0 km/h (0 Bft) O 90 1,0 C 0,0 km/h (0 Bft)
08.01.2016 23:35 2,2 C 2,1 C 92 % 1005,3 hPa 0,0 mm 0,0 km/h (0 Bft) O-SO 112 1,0 C 0,0 km/h (0 Bft)
08.01.2016 23:40 2,2 C 2,1 C 92 % 1005,3 hPa 0,0 mm 0,0 km/h (0 Bft) O-SO 112 1,0 C 0,0 km/h (0 Bft)
08.01.2016 23:45 2,3 C 2,2 C 93 % 1005,3 hPa 0,7 mm 0,0 km/h (0 Bft) O-SO 112 1,3 C 0,0 km/h (0 Bft)
08.01.2016 23:50 2,3 C 2,2 C 93 % 1005,3 hPa 0,0 mm 0,0 km/h (0 Bft) O-SO 112 1,3 C 0,0 km/h (0 Bft)
08.01.2016 23:55 2,3 C 2,3 C 88 % 1005,1 hPa 0,0 mm 0,0 km/h (0 Bft) O-SO 112 0,5 C 0,0 km/h (0 Bft)
_ Min-Zeit 08:50 08:50 14:35 00:30 - 23:55 - - 08:50 23:55
Minimum _ -0,9 C -1,2 C 74 % 1004,5 hPa - 0,0 km/h (0 Bft) - - -4,4 C 0,0 km/h (0 Bft)
_ Max-Zeit 13:50 12:25 23:50 10:10 23:45 03:10 - - 23:50 03:10
Maximum _ 5,1 C 6,4 C 93 % 1009,0 hPa 0,7 mm 16,6 km/h
W-NW (3 Bft)
- - 1,3 C 39,9 km/h
W-NW (6 Bft)
Durchschnitt _ 2,3 C 2,2 C 82 % 1006,7 hPa #6,2 mm 3,4 km/h (1 Bft) W-SW - -0,4 C 4,2 km/h (1 Bft)